Weather History for Quincy, IL

Change the Weather History Date:

Saturday, December 7, 2013

  Actual Average Record
Temperature  
Mean Temperature 13 °F 32 °F  
Max Temperature 21 °F 40 °F 66 °F (1946)
Min Temperature 4 °F 24 °F -8 °F (1976)
Degree Days  
Heating Degree Days 52 33  
Month to date heating degree days 230 221  
Since 1 July heating degree days 1363 1321  
Cooling Degree Days 0 0  
Month to date cooling degree days 0 0  
Year to date cooling degree days 1242 1094  
Moisture  
Dew Point 1 °F    
Average Humidity 63    
Maximum Humidity 86    
Minimum Humidity 39    
Precipitation  
Precipitation 0.00 in 0.08 in 1.69 in (1980)
Month to date precipitation T 0.60  
Year to date precipitation 34.59 35.68  
Sea Level Pressure  
Sea Level Pressure 30.66 in    
Wind  
Wind Speed 8 mph (NNE)    
Max Wind Speed 14 mph    
Max Gust Speed 17 mph    
Visibility 10 miles    
Events      
T = Trace of Precipitation, MM = Missing Value Source: NWS Daily Summary

Daily Weather History Graph

Daily Weather History Graph

Search for Another Location

Airport:

Trip Planner

Search our weather history database for the weather conditions in past years. The results will help you decide how hot, cold, wet, or windy it might be!

Date:

Astronomy

Dec. 07, 2013 Rise Set
Actual Time 7:13 AM CST 4:39 PM CST
Civil Twilight 6:42 AM CST 5:09 PM CST
Nautical Twilight 6:09 AM CST 5:43 PM CST
Astronomical Twilight 5:36 AM CST 6:16 PM CST
Moon 10:58 AM CST (12/7) 10:21 PM CST (12/7)
Length of Visible Light 10h 26m
Length of Day
9h 26m
Waxing Crescent, 29% of the Moon is Illuminated
Dec 7
Waxing Crescent
Dec 9
First Quarter
Dec 17
Full
Dec 25
Last Quarter
Jan 1
New

Hourly Weather History & Observations

Time (CST) Temp. Windchill Dew Point Humidity Pressure Visibility Wind Dir Wind Speed Gust Speed Precip Events Conditions
12:54 AM 8.1 °F -3.2 °F 1.9 °F 76% 30.66 in 10.0 mi NNW 6.9 mph - N/A   Clear
1:54 AM 8.1 °F -2.0 °F 1.0 °F 73% 30.67 in 10.0 mi NNW 5.8 mph - N/A   Clear
2:54 AM 7.0 °F -3.3 °F 1.0 °F 77% 30.68 in 10.0 mi NNW 5.8 mph - N/A   Clear
3:54 AM 7.0 °F -3.3 °F 1.0 °F 77% 30.69 in 10.0 mi NNW 5.8 mph - N/A   Clear
4:54 AM 6.1 °F -4.3 °F -0.0 °F 76% 30.71 in 10.0 mi NNW 5.8 mph - N/A   Clear
5:54 AM 5.0 °F -6.9 °F -0.0 °F 80% 30.72 in 10.0 mi NNW 6.9 mph - N/A   Clear
6:54 AM 3.9 °F -6.9 °F -0.9 °F 80% 30.74 in 10.0 mi NNW 5.8 mph - N/A   Clear
7:54 AM 6.1 °F -6.8 °F -0.0 °F 76% 30.75 in 10.0 mi NNW 8.1 mph - N/A   Clear
8:54 AM 8.1 °F -7.0 °F 1.0 °F 73% 30.76 in 10.0 mi North 11.5 mph - N/A   Clear
9:54 AM 10.9 °F -2.6 °F 1.9 °F 67% 30.77 in 10.0 mi North 10.4 mph - N/A   Clear
10:54 AM 15.1 °F 5.2 °F 1.0 °F 54% 30.76 in 10.0 mi North 6.9 mph - N/A   Clear
11:54 AM 17.1 °F 5.0 °F -0.0 °F 47% 30.72 in 10.0 mi North 10.4 mph - N/A   Clear
12:54 PM 19.9 °F 9.3 °F -0.0 °F 42% 30.70 in 10.0 mi NNE 9.2 mph - N/A   Clear
1:54 PM 21.0 °F 10.6 °F -0.9 °F 38% 30.67 in 10.0 mi NNE 9.2 mph - N/A   Clear
2:54 PM 19.9 °F 9.3 °F -0.9 °F 40% 30.65 in 10.0 mi NNE 9.2 mph - N/A   Clear
3:54 PM 19.0 °F 9.0 °F -0.9 °F 42% 30.65 in 10.0 mi NNE 8.1 mph - N/A   Clear
4:54 PM 16.0 °F 7.4 °F -0.0 °F 49% 30.63 in 10.0 mi NE 5.8 mph - N/A   Clear
5:54 PM 14.0 °F 2.9 °F -0.0 °F 54% 30.61 in 10.0 mi ENE 8.1 mph - N/A   Clear
6:54 PM 15.1 °F 5.2 °F 1.0 °F 54% 30.60 in 10.0 mi ENE 6.9 mph - N/A   Clear
7:54 PM 14.0 °F 2.9 °F 1.0 °F 56% 30.57 in 10.0 mi ENE 8.1 mph - N/A   Clear
8:54 PM 12.9 °F 6.9 °F 1.9 °F 62% 30.59 in 10.0 mi NE 3.5 mph - N/A   Clear
9:54 PM 10.9 °F 0.2 °F 1.9 °F 67% 30.59 in 10.0 mi NNE 6.9 mph - N/A   Clear
10:54 PM 15.1 °F 5.2 °F 3.9 °F 61% 30.56 in 10.0 mi NE 6.9 mph - N/A   Scattered Clouds
11:54 PM 16.0 °F 4.4 °F 3.9 °F 59% 30.51 in 10.0 mi ENE 9.2 mph - N/A   Overcast